Zurück zum Katalog

COSMOS 1275 DEB

AktivPO
NORAD 12735·DEBRIS·🇷🇺 Russia

Gestartet Jun 4, 1981 von Plesetsk Cosmodrome

Loading…

Nächste Überflüge (nächste 24 Stunden)

TLE

AktuellSource: Space-Track

Epoche: Sep 14, 2026, 06:14 UTC

1 12735U 81053CC  26257.25990500  .00000140  00000-0  13399-3 0  9990
2 12735  83.1449   0.7448 0101481 115.1104 274.6019 13.70910398246518

Verfolge COSMOS 1275 DEB in Echtzeit mit AllMySat

Download on the App Store